This is the latest recevied weather packets stored in our database for station/object KE9ADS. If no packets are shown the sender has not sent any weather packets the latest 10 day(s).
| Time | Temp. | Humidity | Pressure | Rain* | Wind** | Luminosity | Snow |
|---|---|---|---|---|---|---|---|
| 1777455951 | 10° C | 68% | 1018.1 hPa | 0 mm | - | 0 W/m² | - |
| 1777455351 | 10° C | 67% | 1018.1 hPa | 0 mm | - | 0 W/m² | - |
| 1777454751 | 10° C | 67% | 1018.2 hPa | 0 mm | - | 0 W/m² | - |
| 1777454149 | 10.56° C | 66% | 1018.2 hPa | 0 mm | - | 0 W/m² | - |
| 1777453549 | 10.56° C | 67% | 1017.9 hPa | 0 mm | - | 0 W/m² | - |
| 1777452949 | 10.56° C | 68% | 1018 hPa | 0 mm | - | 0 W/m² | - |
| 1777452348 | 10.56° C | 68% | 1018.1 hPa | 0 mm | - | 0 W/m² | - |
| 1777451745 | 10.56° C | 68% | 1018 hPa | 0 mm | - | 0 W/m² | - |
| 1777451142 | 10.56° C | 68% | 1018.2 hPa | 0 mm | - | 0 W/m² | - |
| 1777450539 | 11.11° C | 67% | 1017.9 hPa | 0 mm | - | 0 W/m² | - |
| 1777449939 | 11.11° C | 68% | 1017.9 hPa | 0 mm | - | 0 W/m² | - |
| 1777449337 | 11.11° C | 67% | 1017.8 hPa | 0 mm | - | 0 W/m² | - |
| 1777448736 | 11.11° C | 68% | 1017.9 hPa | 0 mm | - | 0 W/m² | - |
| 1777448134 | 11.11° C | 68% | 1017.9 hPa | 0 mm | - | 0 W/m² | - |
| 1777447532 | 11.11° C | 68% | 1018 hPa | 0 mm | - | 0 W/m² | - |
| 1777446927 | 11.67° C | 68% | 1018 hPa | 0 mm | - | 0 W/m² | - |
| 1777446326 | 11.67° C | 66% | 1017.6 hPa | 0 mm | - | 0 W/m² | - |
| 1777445725 | 11.67° C | 65% | 1018 hPa | 0 mm | - | 0 W/m² | - |
| 1777445123 | 11.67° C | 63% | 1018.3 hPa | 0 mm | - | 0 W/m² | - |
| 1777444521 | 11.67° C | 63% | 1018 hPa | 0 mm | - | 0 W/m² | - |
| 1777443920 | 12.22° C | 62% | 1018 hPa | 0 mm | - | 0 W/m² | - |
| 1777443317 | 12.22° C | 60% | 1017.9 hPa | 0 mm | - | 0 W/m² | - |
| 1777442711 | 12.22° C | 64% | 1018 hPa | 0 mm | - | 0 W/m² | - |
| 1777442110 | 12.22° C | 66% | 1017.9 hPa | 0 mm | - | 0 W/m² | - |
| 1777441507 | 12.22° C | 66% | 1017.9 hPa | 0 mm | - | 0 W/m² | - |
* Rain latest hour (hover to see other rain measurements)
** Current wind speed in m/s (hover to see current wind gust speed)